Tracking 27079 objects as of 24-Mar-2023
HD Live streaming from Space Station
objects crossing your sky now

DMSP 5D-2 F11 DEB

Track DMSP 5D-2 F11 DEB now!
10-day predictions


NORAD ID: 28310
Int'l Code: 1991-082X
Perigee: 746.0 km
Apogee: 756.0 km
Inclination: 98.6 °
Period: 99.7 minutes
Semi major axis: 7122 km
RCS: 0.0074 m2 (small)
Launch date: November 28, 1991
Source: United States (US)
Launch site: AIR FORCE WESTERN TEST RANGE (AFWTR)

Note: This is SATELLITE DEBRIS
Your satellite tracking list
Your tracking list is empty




NASA's NSSDC Master Catalog

Two Line Element Set (TLE):
1 28310U 91082X   23081.42567194  .00010617  00000-0  30861-2 0  9991
2 28310  98.5849 152.3332 0007053 290.5386 130.9315 14.44440024986211
Source of the keplerian elements: AFSPC